This demonstration page uses our WeatherBlox Daily Observations layout. Learn more.

Left ArrowRight Arrow

44.89941, -97.11507

Hourly Observations for August 10, 2022

Temp ( °F °C ) Dew Point ( °F °C ) Humidity (%) Winds ( mph kmh ) Pressure ( in mb ) Visibility ( mi km ) Precip ( " mm )
12:53 am 00:53 Clear 68 20 64 17.8 87 87 Calm 30.09 1019 10 16 0.00 0.00
1:53 am 01:53 Clear 66 18.9 64 17.8 93 93 SE 3 6 30.10 1019 10 16 0.00 0.00
2:53 am 02:53 Clear 64 17.8 62 16.7 93 93 Calm 30.11 1020 10 16 0.00 0.00
6:53 am 06:53 Sunny 60 15.6 59 15 96 96 NNW 5 7 30.15 1021 10 16 0.00 0.00
7:53 am 07:53 Sunny 66 18.9 63 17.2 90 90 NNE 3 6 30.17 1022 10 16 0.00 0.00
8:53 am 08:53 Mostly Sunny 71 21.7 67 19.4 87 87 NE 8 13 30.18 1022 10 16 0.00 0.00
9:09 am 09:09 Mostly Cloudy 70 21.1 67 19.4 90 90 NE 9 15 30.15 1021 10 16 0.00 0.00
9:31 am 09:31 Partly Cloudy 73 22.8 67 19.4 81 81 NE 13 20 30.14 1021 10 16 0.00 0.00
9:53 am 09:53 Sunny 74 23.3 66 18.9 76 76 NE 13 20 30.18 1022 10 16 0.00 0.00
10:53 am 10:53 Sunny 76 24.4 65 18.3 69 69 NE 12 19 30.18 1022 10 16 0.00 0.00
11:53 am 11:53 Sunny 78 25.6 65 18.3 64 64 NE 14 22 30.18 1022 10 16 0.00 0.00
12:53 pm 12:53 Sunny 80 26.7 64 17.8 58 58 NE 14 22 30.18 1022 10 16 0.00 0.00
1:53 pm 13:53 Sunny 80 26.7 64 17.8 58 58 NE 13 20 30.18 1022 10 16 0.00 0.00
2:53 pm 14:53 Sunny 82 27.8 65 18.3 56 56 ENE 10 17 30.18 1022 10 16 0.00 0.00
3:53 pm 15:53 Sunny 82 27.8 65 18.3 56 56 NE 10 17 30.17 1022 10 16 0.00 0.00
4:53 pm 16:53 Sunny 81 27.2 65 18.3 58 58 ENE 8 13 30.16 1022 10 16 0.00 0.00
5:53 pm 17:53 Sunny 80 26.7 64 17.8 58 58 E 8 13 30.17 1022 10 16 0.00 0.00
6:53 pm 18:53 Sunny 79 26.1 64 17.8 60 60 ENE 10 17 30.16 1021 10 16 0.00 0.00
7:53 pm 19:53 Sunny 77 25 63 17.2 62 62 ENE 8 13 30.14 1021 10 16 0.00 0.00
8:53 pm 20:53 Clear 71 21.7 62 16.7 73 73 ENE 7 11 30.15 1021 10 16 0.00 0.00
9:53 pm 21:53 Clear 69 20.6 60 15.6 73 73 NE 7 11 30.17 1022 10 16 0.00 0.00
10:53 pm 22:53 Clear 70 21.1 59 15 68 68 ENE 8 13 30.18 1022 10 16 0.00 0.00
11:53 pm 23:53 Clear 70 21.1 58 14.4 66 66 ENE 7 11 30.17 1022 10 16 0.00 0.00

Powered by AerisWeather